Regional Weather Roundup
Issued by NWS

Home | Current Version | Previous Version | Text Only | Print | Product List | Glossary On
Versions: 1 2 3 4 5 6 7 8 9 10 11 12 13 14 15 16 17 18 19 20 21 22 23 24 25 26 27 28 29 30 31 32 33 34 35 36 37 38 39 40 41 42 43 44 45 46 47 48 49
000
ASUS42 KKEY 240010
RWRKEY

FLORIDA REGIONAL WEATHER ROUNDUP FOR THE FLORIDA KEYS
NATIONAL WEATHER SERVICE KEY WEST FLORIDA
800 PM EDT TUE SEP 23 2014

...SOUTH FLORIDA AND THE KEYS...

CITY           SKY/WX    TMP DP  RH WIND       PRES   REMARKS
FORT MYERS     CLOUDY    77  70  79 CALM      29.96R
SW REGIONAL AP CLOUDY    79  70  74 CALM      29.97R
NAPLES         MOCLDY    79  70  74 N3        29.97R
MIAMI          MOCLDY    78  71  79 E3        29.98R
WEST KENDALL   PTCLDY    77  71  82 E6        29.97R
HOMESTEAD      PTCLDY    78  73  84 N8        29.97R
MARATHON       CLOUDY    81  74  79 E6        29.95R
BOCA CHICA NAS MOCLDY    81  75  82 E7        29.95R
KEY WEST INTL  CLOUDY    82  75  79 E8        29.95R

...INTERNATIONAL WEATHER...

CITY           SKY/WX    TMP DP  RH WIND       PRES   REMARKS
NASSAU BAHAMAS MOCLDY    84  77  79 E7        29.98R HX  94
CANCUN MEXICO  CLOUDY    77  77 100 NW2       29.89F
COZUMEL MEXICO CLOUDY    77  73  88 NE6       29.88F

ADJACENT COASTAL WATERS...

STATION/POSITION TIME  SKY/WX   TEMP    WIND        PRES    WAVE
                                AIR SEA DIR/SP/G            HT/PER
                 (UTC)          (F)     (DEG/KT/KT) (MB)    (FT/S)
PULASKI SHOAL LI 0000            82     130/  8/  9 1014.2R
SAND KEY         2300            82      90/  9/ 12 1013.3R
SOMBRERO KEY     0000            82     100/ 10/ 11 1015.0R
LONG KEY         2300            81 84  110/  9/ 10 1014.3R
MOLASSES REEF    0000            82 85   80/  9/ 10 1014.6R
FOWEY ROCKS      0000            81 84   30/  6/  7 1015.3R
Buoy 42080       NOT AVBL

$$


USA.gov is the U.S. government's official web portal to all federal, state and local government web resources and services.